QPF
0.00 0.00 0.00 0.00 0.00 0.00 0.00 0.00 0.00 0.00 0.00 0.00 0.00 0.00 0.00 0.00 0.00 0.00 0.00 0.00 0.00 0.00 0.00 0.00 0.00 0.00 0.00 0.00 0.00 0.00 0.00 0.00 0.00 0.00 0.00 0.00 0.00 0.00 0.00 0.00 0.00 0.00 0.00 0.00 0.00 0.00 0.00
0.00 0.00 0.00 0.00 0.00 0.00 0.00 0.00 0.00 0.00 0.00 0.00 0.00 0.00 0.00 0.00 0.00 0.00 0.00 0.00 0.00 0.00 0.00 0.00 0.00 0.00 0.00 0.00 0.00 0.00 0.00 0.00 0.00 0.00 0.00 0.00 0.00 0.00 0.00 0.00 0.00 0.00 0.00 0.00 0.00 0.00 0.00
0.00 0.00 0.00 0.00 0.00 0.00 0.00 0.00 0.00 0.00 0.00 0.00 0.00 0.00 0.00 0.00 0.00 0.00 0.00 0.00 0.00 0.00 0.00 0.00 0.00 0.00 0.00 0.00 0.00 0.00 0.00 0.00 0.00 0.00 0.00 0.00 0.00 0.00 0.00 0.00 0.00 0.00 0.00 0.00 0.00 0.00 0.00
0.00 0.00 0.00 0.00 0.00 0.00 0.00 0.00 0.00 0.00 0.00 0.00 0.00 0.00 0.00 0.00 0.00 0.00 0.00 0.00 0.00 0.00 0.00 0.00 0.00 0.00 0.00 0.00 0.00 0.00 0.00 0.00 0.00 0.00 0.00 0.00 0.00 0.00 0.00 0.00 0.00 0.00 0.00 0.00 0.00 0.00 0.00
0.00 0.00 0.00 0.00 0.00 0.00 0.00 0.00 0.00 0.00 0.00 0.00 0.00 0.00 0.00 0.00 0.00 0.00 0.00 0.00 0.00 0.00 0.00 0.00 0.00 0.00 0.00 0.00 0.00 0.00 0.00 0.00 0.00 0.00 0.00 0.00 0.00 0.00 0.00 0.00 0.00 0.00 0.00 0.00 0.00 0.00 0.00
0.00 0.00 0.00 0.00 0.00 0.00 0.00 0.00 0.00 0.00 0.00 0.00 0.00 0.00 0.00 0.00 0.00 0.00 0.00 0.00 0.00 0.00 0.00 0.00 0.00 0.00 0.00 0.00 0.00 0.00 0.00 0.00 0.00 0.00 0.00 0.00 0.00 0.01 0.01 0.01 0.02 0.00 0.00 0.00 0.00 0.00 0.00
0.00 0.00 0.00 0.00 0.00 0.00 0.00 0.00 0.00 0.00 0.00 0.00 0.00 0.00 0.00 0.00 0.00 0.00 0.00 0.00 0.00 0.00 0.00 0.00 0.00 0.00 0.00 0.00 0.00 0.00 0.00 0.00 0.00 0.00 0.00 0.00 0.01 0.04 0.03 0.02 0.01 0.00 0.00 0.00 0.00 0.00 0.00
0.00 0.00 0.00 0.00 0.00 0.00 0.00 0.00 0.00 0.00 0.00 0.00 0.00 0.00 0.00 0.00 0.00 0.00 0.00 0.00 0.00 0.00 0.00 0.00 0.00 0.00 0.00 0.00 0.00 0.00 0.00 0.00 0.00 0.00 0.00 0.00 0.00 0.01 0.05 0.07 0.03 0.01 0.00 0.00 0.00 0.00 0.00
0.00 0.00 0.00 0.00 0.00 0.00 0.00 0.00 0.00 0.00 0.00 0.00 0.00 0.00 0.00 0.00 0.00 0.00 0.00 0.00 0.00 0.00 0.00 0.00 0.00 0.00 0.00 0.00 0.00 0.00 0.00 0.00 0.00 0.00 0.00 0.00 0.00 0.00 0.01 0.10 0.15 0.08 0.02 0.00 0.00 0.00 0.00
0.00 0.00 0.00 0.00 0.00 0.00 0.00 0.00 0.00 0.00 0.00 0.00 0.00 0.00 0.00 0.00 0.00 0.00 0.00 0.00 0.00 0.00 0.00 0.00 0.00 0.00 0.00 0.00 0.00 0.00 0.00 0.00 0.00 0.00 0.00 0.00 0.00 0.00 0.00 0.06 0.15 0.13 0.02 0.00 0.00 0.00 0.00
0.00 0.00 0.00 0.00 0.00 0.00 0.00 0.00 0.00 0.00 0.00 0.00 0.00 0.00 0.00 0.00 0.00 0.00 0.00 0.00 0.00 0.00 0.00 0.00 0.00 0.00 0.00 0.00 0.00 0.00 0.00 0.01 0.02 0.00 0.02 0.02 0.00 0.01 0.01 0.02 0.07 0.14 0.01 0.00 0.00 0.00 0.00
0.00 0.00 0.01 0.00 0.00 0.00 0.00 0.00 0.00 0.00 0.00 0.00 0.00 0.00 0.00 0.00 0.00 0.00 0.00 0.00 0.00 0.00 0.00 0.00 0.00 0.00 0.00 0.00 0.00 0.00 0.00 0.00 0.00 0.00 0.01 0.01 0.00 0.01 0.02 0.00 0.01 0.10 0.07 0.06 0.04 0.04 0.05
0.00 0.00 0.00 0.00 0.00 0.01 0.01 0.00 0.00 0.00 0.00 0.00 0.00 0.00 0.00 0.00 0.00 0.00 0.00 0.00 0.00 0.00 0.00 0.00 0.00 0.00 0.00 0.00 0.00 0.00 0.00 0.00 0.00 0.01 0.00 0.00 0.00 0.00 0.00 0.01 0.03 0.12 0.23 0.34 0.24 0.19 0.14
0.00 0.00 0.00 0.00 0.00 0.00 0.00 0.00 0.00 0.00 0.00 0.00 0.00 0.00 0.00 0.00 0.00 0.00 0.00 0.00 0.00 0.00 0.00 0.00 0.00 0.00 0.00 0.00 0.00 0.00 0.00 0.00 0.00 0.02 0.01 0.00 0.00 0.00 0.00 0.01 0.03 0.12 0.17 0.30 0.29 0.18 0.09
0.00 0.00 0.00 0.00 0.00 0.00 0.00 0.00 0.00 0.00 0.00 0.00 0.00 0.00 0.00 0.00 0.00 0.00 0.00 0.00 0.00 0.00 0.00 0.00 0.00 0.00 0.00 0.00 0.00 0.00 0.00 0.00 0.00 0.02 0.00 0.00 0.00 0.00 0.00 0.00 0.02 0.07 0.18 0.14 0.18 0.20 0.10
0.00 0.00 0.00 0.00 0.00 0.00 0.00 0.00 0.00 0.00 0.00 0.00 0.00 0.00 0.00 0.00 0.00 0.00 0.00 0.00 0.00 0.00 0.00 0.00 0.01 0.00 0.00 0.00 0.01 0.00 0.00 0.01 0.01 0.01 0.00 0.01 0.02 0.00 0.00 0.01 0.02 0.12 0.18 0.17 0.31 0.28 0.27
0.00 0.00 0.01 0.01 0.00 0.00 0.00 0.00 0.00 0.00 0.00 0.00 0.00 0.00 0.00 0.00 0.00 0.00 0.00 0.00 0.00 0.00 0.00 0.00 0.00 0.01 0.00 0.05 0.00 0.00 0.00 0.01 0.02 0.01 0.00 0.03 0.05 0.00 0.01 0.14 0.16 0.13 0.16 0.26 0.32 0.24 0.11
0.01 0.00 0.01 0.00 0.00 0.01 0.00 0.00 0.00 0.00 0.00 0.00 0.00 0.00 0.00 0.00 0.00 0.00 0.00 0.00 0.00 0.00 0.00 0.00 0.00 0.01 0.00 0.00 0.00 0.00 0.02 0.01 0.02 0.02 0.03 0.02 0.04 0.01 0.00 0.12 0.17 0.08 0.17 0.13 0.21 0.17 0.12
0.00 0.00 0.01 0.00 0.00 0.00 0.00 0.00 0.00 0.00 0.00 0.00 0.00 0.00 0.00 0.00 0.00 0.00 0.00 0.00 0.00 0.00 0.00 0.00 0.00 0.00 0.00 0.00 0.01 0.02 0.02 0.00 0.00 0.01 0.03 0.04 0.04 0.02 0.00 0.07 0.12 0.14 0.16 0.23 0.24 0.17 0.10
0.00 0.01 0.01 0.00 0.00 0.01 0.01 0.00 0.00 0.00 0.00 0.00 0.00 0.00 0.00 0.00 0.00 0.00 0.00 0.00 0.00 0.00 0.00 0.00 0.00 0.00 0.00 0.00 0.00 0.00 0.01 0.00 0.00 0.00 0.02 0.06 0.06 0.01 0.02 0.01 0.05 0.06 0.06 0.10 0.18 0.16 0.11
0.00 0.01 0.01 0.00 0.00 0.00 0.00 0.00 0.00 0.00 0.01 0.00 0.00 0.00 0.00 0.00 0.00 0.00 0.00 0.00 0.00 0.00 0.00 0.00 0.00 0.00 0.00 0.00 0.00 0.00 0.00 0.00 0.00 0.00 0.00 0.06 0.07 0.05 0.02 0.00 0.01 0.00 0.00 0.02 0.06 0.08 0.07
0.01 0.00 0.00 0.00 0.00 0.01 0.00 0.00 0.00 0.01 0.01 0.00 0.00 0.00 0.00 0.00 0.00 0.00 0.00 0.00 0.00 0.00 0.00 0.00 0.00 0.00 0.00 0.00 0.00 0.00 0.00 0.00 0.00 0.00 0.00 0.02 0.13 0.02 0.00 0.00 0.00 0.00 0.00 0.00 0.00 0.02 0.02
0.00 0.00 0.00 0.00 0.01 0.01 0.00 0.00 0.00 0.02 0.01 0.00 0.00 0.00 0.01 0.00 0.00 0.00 0.00 0.00 0.00 0.00 0.00 0.00 0.00 0.00 0.00 0.00 0.00 0.00 0.00 0.00 0.00 0.00 0.00 0.00 0.00 0.00 0.00 0.00 0.00 0.00 0.00 0.00 0.00 0.01 0.02
0.01 0.01 0.00 0.00 0.01 0.01 0.00 0.00 0.00 0.02 0.01 0.00 0.00 0.02 0.05 0.01 0.00 0.00 0.00 0.00 0.00 0.00 0.00 0.00 0.00 0.00 0.00 0.00 0.00 0.00 0.00 0.00 0.00 0.00 0.00 0.00 0.00 0.00 0.00 0.00 0.00 0.00 0.00 0.00 0.00 0.01 0.01
0.01 0.01 0.01 0.00 0.01 0.00 0.00 0.00 0.00 0.01 0.03 0.00 0.00 0.02 0.05 0.02 0.00 0.00 0.00 0.00 0.00 0.00 0.00 0.00 0.00 0.00 0.00 0.00 0.00 0.00 0.00 0.00 0.00 0.00 0.00 0.00 0.00 0.00 0.00 0.00 0.00 0.00 0.00 0.00 0.00 0.00 0.00
0.01 0.00 0.01 0.01 0.01 0.01 0.00 0.00 0.00 0.00 0.02 0.01 0.00 0.00 0.02 0.02 0.00 0.00 0.00 0.01 0.01 0.00 0.00 0.00 0.00 0.00 0.00 0.00 0.00 0.00 0.01 0.00 0.00 0.00 0.01 0.01 0.00 0.02 0.01 0.01 0.00 0.00 0.00 0.00 0.00 0.00 0.00
0.00 0.00 0.00 0.01 0.02 0.01 0.00 0.00 0.00 0.01 0.02 0.02 0.00 0.00 0.02 0.02 0.00 0.00 0.00 0.00 0.00 0.00 0.01 0.00 0.00 0.00 0.00 0.00 0.00 0.00 0.00 0.01 0.01 0.01 0.00 0.00 0.01 0.07 0.02 0.01 0.00 0.00 0.00 0.00 0.00 0.00 0.00
0.01 0.01 0.01 0.02 0.01 0.00 0.00 0.00 0.00 0.01 0.00 0.01 0.00 0.00 0.01 0.01 0.00 0.00 0.00 0.00 0.00 0.01 0.01 0.00 0.01 0.01 0.01 0.02 0.02 0.04 0.03 0.08 0.01 0.00 0.00 0.00 0.00 0.00 0.00 0.01 0.00 0.00 0.01 0.02 0.01 0.00 0.00
0.00 0.00 0.00 0.01 0.00 0.01 0.01 0.00 0.00 0.01 0.02 0.02 0.00 0.00 0.00 0.05 0.02 0.00 0.00 0.00 0.00 0.00 0.00 0.01 0.01 0.01 0.01 0.00 0.00 0.01 0.00 0.00 0.00 0.00 0.01 0.01 0.04 0.03 0.04 0.01 0.00 0.00 0.00 0.00 0.00 0.00 0.00
MSLP
1024.43 1024.47 1024.53 1024.50 1024.09 1023.60 1023.68 1023.64 1023.54 1023.29 1022.94 1022.55 1022.05 1021.76 1021.48 1021.04 1020.69 1020.29 1019.91 1019.56 1019.21 1018.98 1018.78 1018.50 1018.25 1017.92 1017.83 1017.90 1016.39 1014.36 1014.48 1014.63 1014.40 1014.31 1013.95 1013.40 1013.33 1013.00 1012.26 1011.57 1010.99 1009.89 1008.27 1008.15 1007.67 1007.12 1006.42
1024.66 1024.67 1024.63 1024.47 1024.07 1024.00 1023.92 1023.71 1023.67 1023.41 1022.97 1022.50 1022.13 1021.99 1021.60 1021.20 1020.84 1020.41 1019.94 1019.37 1018.89 1018.62 1018.26 1018.15 1018.07 1017.94 1018.04 1017.72 1014.83 1014.60 1014.73 1014.84 1014.84 1014.56 1014.29 1013.74 1013.16 1012.87 1012.55 1011.62 1011.01 1008.83 1008.60 1008.00 1007.60 1006.47 1006.29
1024.80 1024.68 1024.66 1024.45 1024.35 1024.27 1024.05 1023.88 1023.84 1023.46 1023.01 1022.66 1022.41 1022.08 1021.63 1021.14 1020.75 1020.50 1020.09 1019.44 1018.86 1018.43 1018.08 1017.85 1017.90 1018.01 1017.66 1016.13 1014.65 1014.42 1015.01 1015.26 1015.11 1014.90 1014.59 1014.03 1013.55 1012.96 1012.39 1011.82 1011.08 1009.83 1008.95 1008.14 1006.42 1006.16 1005.59
1024.73 1024.66 1024.65 1024.53 1024.50 1024.32 1024.12 1024.07 1023.94 1023.51 1023.12 1022.74 1022.38 1021.94 1021.55 1021.25 1020.95 1020.56 1019.83 1019.04 1018.31 1017.74 1017.32 1017.18 1017.43 1017.72 1016.62 1014.91 1014.78 1014.81 1014.94 1014.74 1014.65 1014.50 1014.41 1013.95 1013.51 1013.14 1012.17 1011.83 1011.10 1010.28 1009.27 1007.92 1003.98 1005.83 1004.93
1024.74 1024.71 1024.58 1024.58 1024.49 1024.36 1024.29 1024.19 1023.98 1023.63 1023.14 1022.74 1022.34 1021.91 1021.56 1021.19 1020.86 1020.34 1019.54 1018.66 1017.71 1017.26 1016.56 1017.11 1017.57 1017.72 1016.43 1014.92 1014.81 1014.42 1014.62 1014.77 1014.58 1014.20 1013.91 1013.02 1013.13 1012.78 1012.05 1011.89 1011.48 1010.37 1007.96 1006.35 1004.00 1004.52 1004.88
1024.84 1024.83 1024.68 1024.54 1024.39 1024.32 1024.25 1024.12 1023.89 1023.56 1023.13 1022.69 1022.32 1021.91 1021.58 1021.27 1020.87 1020.20 1019.17 1018.08 1017.27 1017.26 1017.15 1017.31 1017.61 1018.05 1015.99 1015.10 1014.60 1014.24 1014.36 1014.56 1014.57 1014.19 1013.77 1013.12 1013.11 1012.30 1011.68 1011.19 1009.34 1009.16 1008.15 1006.16 1003.34 1003.13 1004.84
1024.92 1024.84 1024.76 1024.59 1024.37 1024.22 1024.08 1023.92 1023.75 1023.49 1023.06 1022.70 1022.36 1021.93 1021.58 1021.20 1020.75 1020.16 1019.31 1018.38 1018.31 1017.95 1017.86 1017.95 1017.33 1017.00 1015.42 1014.93 1014.32 1013.76 1014.16 1014.37 1014.39 1014.38 1014.10 1013.55 1013.28 1011.61 1010.68 1010.32 1009.42 1009.43 1008.50 1006.38 1003.33 1004.22 1004.17
1024.93 1024.86 1024.69 1024.54 1024.39 1024.21 1024.08 1023.94 1023.70 1023.34 1023.04 1022.75 1022.41 1021.96 1021.54 1021.07 1020.62 1020.07 1019.87 1019.87 1020.45 1020.71 1018.27 1016.88 1016.09 1016.41 1015.20 1014.80 1014.74 1013.80 1013.74 1014.51 1014.45 1014.46 1014.15 1014.13 1012.77 1012.10 1011.78 1010.89 1010.10 1009.32 1008.22 1006.48 1003.91 1004.64 1003.92
1024.86 1024.79 1024.64 1024.48 1024.30 1024.17 1024.04 1023.89 1023.61 1023.32 1023.01 1022.74 1022.45 1022.00 1021.55 1021.12 1020.62 1020.73 1020.96 1020.30 1020.26 1020.16 1019.81 1016.68 1015.52 1015.05 1013.97 1014.13 1014.37 1013.89 1013.92 1014.24 1014.47 1014.32 1014.07 1013.88 1012.22 1011.99 1011.73 1010.80 1010.38 1009.13 1008.07 1006.61 1005.17 1004.95 1004.05
1024.75 1024.67 1024.54 1024.38 1024.19 1024.02 1023.89 1023.76 1023.57 1023.32 1023.01 1022.70 1022.39 1022.08 1021.66 1021.21 1021.03 1021.29 1020.77 1020.14 1020.03 1020.04 1019.82 1017.01 1015.03 1013.87 1013.44 1013.42 1013.62 1013.02 1013.08 1013.52 1013.91 1013.85 1013.75 1013.10 1012.11 1011.70 1011.28 1010.58 1010.22 1009.03 1008.70 1007.45 1006.22 1006.05 1004.14
1024.51 1024.40 1024.29 1024.17 1024.00 1023.82 1023.73 1023.64 1023.43 1023.22 1022.94 1022.58 1022.27 1021.98 1021.84 1021.61 1021.85 1021.60 1020.58 1020.18 1019.90 1020.33 1019.75 1016.31 1014.33 1013.31 1013.32 1013.52 1013.56 1012.96 1013.10 1013.49 1013.68 1013.47 1014.02 1012.02 1011.27 1011.13 1010.70 1009.37 1010.23 1008.24 1008.66 1007.74 1006.43 1005.58 1004.24
1024.14 1024.04 1024.03 1023.94 1023.84 1023.65 1023.48 1023.42 1023.25 1023.00 1022.72 1022.39 1022.10 1021.85 1021.67 1021.87 1022.01 1020.87 1020.42 1020.29 1020.37 1021.32 1019.30 1016.45 1015.00 1014.69 1014.29 1013.73 1013.64 1013.22 1013.33 1013.56 1013.49 1013.60 1013.10 1011.86 1010.83 1010.52 1009.38 1009.19 1009.14 1008.69 1008.70 1007.93 1006.89 1005.22 1002.57
1024.01 1023.90 1023.84 1023.76 1023.69 1023.52 1023.34 1023.23 1023.01 1022.78 1022.48 1022.11 1021.80 1021.59 1021.44 1021.42 1021.19 1020.63 1020.36 1020.89 1021.83 1021.43 1019.14 1017.49 1016.30 1015.76 1015.02 1014.55 1014.19 1013.94 1013.74 1013.84 1014.16 1014.12 1013.07 1011.58 1009.93 1009.14 1009.13 1009.32 1008.94 1009.02 1008.53 1007.43 1006.07 1003.31 1000.77
1023.82 1023.71 1023.66 1023.51 1023.38 1023.34 1023.23 1023.08 1022.84 1022.58 1022.27 1021.92 1021.48 1021.06 1020.70 1020.46 1020.44 1020.76 1021.03 1021.93 1022.43 1020.98 1019.34 1017.90 1017.24 1016.11 1015.56 1015.31 1015.04 1014.62 1014.20 1014.17 1014.35 1014.59 1013.99 1013.17 1010.66 1009.41 1008.99 1008.92 1007.73 1006.80 1006.91 1005.44 1004.01 1001.52 999.99
1023.49 1023.39 1023.33 1023.21 1023.13 1023.08 1023.08 1022.96 1022.76 1022.39 1022.06 1021.72 1021.34 1021.23 1021.00 1020.34 1020.32 1020.70 1021.66 1022.31 1021.64 1020.63 1019.30 1018.58 1017.47 1016.65 1016.28 1016.04 1016.19 1015.35 1014.66 1014.28 1014.05 1014.36 1014.65 1013.70 1011.52 1009.17 1008.76 1008.11 1008.28 1005.92 1005.28 1003.83 1004.21 1001.48 999.52
1023.12 1023.07 1023.00 1022.93 1022.90 1022.92 1022.91 1022.82 1022.62 1022.30 1021.98 1021.73 1022.16 1022.00 1021.12 1020.25 1020.28 1020.81 1022.02 1022.31 1021.22 1020.02 1019.20 1018.69 1018.12 1017.48 1017.19 1016.89 1016.71 1016.27 1014.92 1014.00 1013.87 1014.02 1014.23 1013.63 1011.73 1009.17 1008.28 1007.66 1006.75 1006.29 1005.17 1004.78 1003.60 1001.98 1000.21
1022.84 1022.73 1022.61 1022.51 1022.49 1022.52 1022.55 1022.55 1022.47 1022.21 1022.00 1021.80 1022.40 1022.16 1020.67 1020.12 1020.52 1021.75 1022.66 1022.37 1020.88 1019.63 1019.24 1018.80 1018.21 1017.83 1017.57 1017.36 1016.87 1016.35 1015.18 1014.16 1014.20 1013.76 1013.78 1013.44 1012.46 1009.86 1008.93 1008.67 1008.53 1007.38 1005.43 1004.20 1002.60 1001.49 999.86
1022.53 1022.37 1022.26 1022.14 1022.06 1022.04 1022.12 1022.21 1022.24 1022.13 1021.98 1022.14 1022.92 1022.85 1020.98 1020.42 1021.62 1022.63 1022.75 1021.81 1020.53 1019.59 1018.88 1018.38 1018.02 1017.78 1017.65 1017.46 1016.71 1016.28 1015.50 1014.84 1014.17 1013.99 1013.35 1012.78 1012.11 1011.11 1009.41 1008.87 1009.03 1008.19 1006.86 1005.80 1003.45 1001.64 1000.05
1022.14 1022.05 1021.85 1021.78 1021.79 1021.80 1021.74 1021.86 1022.00 1022.00 1022.03 1022.88 1023.43 1022.92 1021.39 1021.10 1022.47 1023.19 1022.53 1021.53 1020.65 1019.80 1019.10 1018.59 1018.26 1017.92 1017.76 1017.54 1017.09 1016.14 1015.44 1014.56 1014.20 1014.13 1013.34 1012.76 1012.00 1011.40 1009.71 1009.59 1008.88 1008.29 1007.44 1006.46 1005.56 1003.07 1000.38
1021.68 1021.58 1021.40 1021.47 1021.49 1021.38 1021.40 1021.46 1021.65 1021.80 1021.95 1022.75 1023.71 1023.82 1022.90 1022.60 1022.79 1022.88 1022.55 1021.53 1020.70 1019.78 1019.24 1018.68 1018.28 1017.94 1018.01 1017.74 1017.27 1016.51 1015.83 1014.88 1014.37 1014.02 1013.35 1012.62 1012.10 1011.82 1011.44 1010.70 1009.86 1008.87 1007.31 1006.78 1006.20 1004.73 1002.65
1021.24 1021.23 1021.08 1021.12 1021.17 1021.14 1021.12 1021.18 1021.38 1021.57 1021.83 1022.79 1023.86 1024.16 1023.73 1023.55 1023.22 1022.81 1022.62 1021.91 1020.88 1020.15 1019.29 1018.76 1018.41 1018.34 1018.43 1017.96 1017.33 1016.60 1016.01 1015.06 1014.09 1013.52 1013.34 1013.41 1012.84 1012.23 1011.59 1010.37 1009.30 1008.21 1007.21 1006.02 1005.60 1005.20 1003.92
1020.77 1020.80 1020.73 1020.77 1020.75 1020.73 1020.78 1020.86 1021.04 1021.19 1021.62 1022.52 1023.49 1023.87 1023.58 1023.38 1022.96 1022.72 1022.16 1021.49 1020.59 1019.99 1019.69 1019.06 1018.80 1018.53 1018.32 1018.15 1017.71 1016.80 1016.40 1015.70 1015.04 1013.58 1013.36 1013.38 1012.87 1012.37 1011.26 1009.98 1009.06 1007.71 1005.85 1005.00 1004.96 1004.22 1003.07
1020.29 1020.28 1020.32 1020.38 1020.34 1020.36 1020.45 1020.56 1020.69 1020.88 1021.35 1022.24 1022.96 1023.11 1023.35 1022.95 1022.66 1022.37 1021.72 1020.83 1020.30 1020.00 1019.41 1018.82 1018.73 1018.51 1018.02 1017.43 1016.93 1016.38 1015.76 1015.08 1014.53 1013.99 1013.31 1013.54 1013.04 1012.62 1011.36 1010.53 1009.23 1006.75 1004.72 1004.10 1003.44 1003.42 1003.42
1019.74 1019.78 1019.88 1019.95 1019.90 1019.84 1020.05 1020.19 1020.30 1020.43 1020.87 1021.59 1022.18 1022.54 1022.67 1022.32 1022.23 1021.71 1021.01 1020.60 1020.16 1019.95 1019.49 1018.86 1018.62 1018.41 1017.53 1016.96 1016.68 1015.85 1015.11 1014.08 1013.22 1012.52 1012.56 1012.39 1012.80 1013.05 1011.62 1010.61 1009.20 1005.83 1004.14 1003.06 1002.56 1002.41 1002.20
1019.31 1019.34 1019.44 1019.51 1019.45 1019.50 1019.66 1019.82 1019.95 1020.00 1020.23 1020.95 1021.41 1022.02 1022.02 1021.54 1021.18 1020.90 1020.56 1020.25 1019.86 1019.53 1019.41 1019.00 1018.13 1017.60 1017.44 1017.37 1017.46 1016.70 1015.40 1014.08 1012.03 1011.02 1010.42 1010.78 1012.07 1012.64 1012.51 1010.79 1008.12 1005.40 1003.58 1003.12 1002.63 1002.06 1001.49
1019.08 1019.05 1019.09 1019.04 1019.04 1019.09 1019.23 1019.44 1019.60 1019.73 1019.83 1020.49 1020.86 1021.19 1021.58 1021.47 1020.00 1019.98 1019.94 1019.86 1019.79 1019.60 1019.25 1018.51 1017.78 1017.25 1017.39 1017.93 1018.69 1018.37 1016.79 1014.82 1012.89 1010.62 1009.30 1009.76 1010.89 1012.03 1012.16 1010.88 1008.57 1005.11 1003.29 1002.76 1002.32 1002.02 1001.48
1018.76 1018.68 1018.69 1018.59 1018.55 1018.67 1018.95 1019.12 1019.28 1019.34 1019.34 1019.87 1020.18 1020.58 1020.92 1020.78 1019.54 1019.48 1019.59 1019.42 1019.25 1019.40 1019.38 1018.98 1018.44 1017.91 1017.78 1018.74 1019.33 1018.40 1016.56 1014.40 1013.20 1011.92 1010.40 1010.54 1010.95 1011.37 1010.96 1010.36 1008.04 1005.66 1004.13 1002.67 1002.84 1004.17 1002.28
1018.35 1018.32 1018.22 1018.17 1018.25 1018.49 1018.62 1018.77 1018.85 1018.88 1018.93 1019.53 1019.48 1019.94 1020.48 1020.15 1019.04 1018.83 1018.69 1018.82 1018.84 1019.03 1019.09 1018.88 1019.01 1018.35 1018.60 1018.75 1018.83 1017.80 1016.54 1014.86 1013.77 1011.91 1010.89 1010.37 1010.40 1010.55 1010.33 1009.37 1007.74 1005.82 1004.53 1004.64 1004.66 1003.52 1003.14
1018.07 1018.05 1018.07 1018.09 1018.16 1018.15 1018.14 1018.31 1018.45 1018.39 1018.34 1018.76 1019.43 1019.37 1019.69 1019.83 1018.50 1018.18 1017.76 1017.54 1017.29 1017.50 1018.06 1018.40 1018.22 1017.85 1017.81 1018.02 1018.06 1017.32 1016.60 1015.39 1013.74 1012.20 1010.38 1010.20 1009.78 1009.83 1009.64 1007.98 1006.05 1005.03 1004.46 1004.01 1004.04 1003.53 1002.80
Thickness
5533 5533 5533 5534 5538 5541 5539 5539 5538 5539 5541 5544 5547 5548 5548 5551 5553 5555 5556 5557 5558 5559 5559 5559 5559 5560 5560 5554 5562 5577 5578 5579 5583 5585 5589 5599 5599 5602 5610 5623 5635 5642 5676 5684 5691 5703 5712
5527 5527 5527 5529 5533 5532 5531 5532 5531 5531 5534 5537 5538 5537 5539 5541 5542 5544 5545 5547 5548 5548 5548 5546 5545 5546 5545 5540 5559 5560 5558 5558 5563 5568 5573 5580 5588 5588 5592 5607 5613 5653 5656 5663 5673 5694 5700
5521 5522 5522 5524 5523 5522 5523 5523 5522 5524 5526 5527 5527 5528 5531 5532 5533 5533 5533 5535 5537 5538 5536 5534 5528 5525 5528 5535 5542 5543 5540 5538 5540 5546 5552 5561 5566 5571 5581 5588 5599 5626 5630 5643 5669 5682 5691
5517 5517 5516 5515 5515 5515 5515 5514 5513 5515 5517 5518 5519 5521 5522 5522 5522 5521 5523 5525 5527 5528 5525 5521 5514 5509 5513 5524 5520 5520 5522 5522 5525 5529 5535 5542 5547 5553 5567 5577 5584 5599 5613 5618 5685 5671 5691
5510 5509 5509 5508 5508 5507 5506 5504 5505 5507 5510 5511 5512 5514 5514 5513 5512 5512 5513 5515 5519 5517 5515 5503 5496 5489 5494 5504 5498 5503 5502 5502 5507 5514 5521 5531 5531 5539 5554 5558 5559 5574 5604 5626 5665 5674 5673
5501 5501 5501 5501 5500 5499 5498 5497 5498 5500 5502 5503 5504 5504 5503 5502 5501 5502 5505 5507 5508 5503 5495 5486 5481 5471 5482 5484 5486 5491 5487 5489 5489 5493 5501 5511 5509 5524 5539 5544 5558 5568 5583 5614 5649 5674 5654
5495 5494 5493 5493 5493 5493 5492 5492 5492 5493 5495 5494 5494 5494 5492 5491 5491 5491 5493 5493 5483 5482 5473 5464 5464 5464 5474 5474 5474 5474 5475 5475 5475 5477 5474 5483 5485 5516 5539 5546 5568 5564 5573 5596 5646 5646 5643
5489 5488 5488 5487 5487 5486 5486 5486 5486 5487 5487 5486 5485 5485 5483 5482 5481 5481 5477 5470 5457 5449 5463 5461 5461 5449 5459 5461 5447 5461 5465 5460 5460 5455 5465 5460 5467 5497 5504 5521 5532 5547 5557 5578 5624 5624 5631
5484 5483 5482 5482 5482 5481 5480 5479 5479 5479 5478 5478 5476 5475 5473 5471 5470 5466 5455 5454 5446 5439 5427 5448 5454 5451 5457 5453 5441 5447 5450 5447 5445 5447 5445 5446 5480 5483 5488 5506 5508 5520 5545 5571 5590 5608 5618
5481 5479 5478 5477 5476 5476 5474 5472 5471 5470 5470 5469 5466 5465 5463 5461 5458 5448 5444 5442 5436 5428 5390 5433 5450 5451 5454 5453 5446 5451 5449 5446 5444 5441 5441 5449 5468 5465 5466 5477 5503 5504 5532 5551 5573 5569 5572
5477 5476 5474 5472 5471 5470 5468 5465 5464 5463 5462 5461 5458 5456 5452 5449 5441 5434 5437 5432 5426 5412 5338 5441 5451 5451 5447 5447 5446 5449 5443 5436 5430 5432 5432 5451 5460 5458 5462 5495 5483 5507 5522 5535 5557 5560 5573
5476 5474 5471 5468 5466 5465 5462 5460 5458 5457 5455 5453 5451 5448 5444 5439 5434 5434 5429 5422 5412 5360 5338 5430 5439 5427 5427 5439 5438 5440 5438 5433 5434 5431 5434 5442 5457 5457 5470 5479 5488 5510 5501 5515 5526 5545 5549
5472 5470 5467 5464 5461 5459 5457 5454 5452 5451 5449 5447 5445 5442 5438 5432 5426 5427 5422 5407 5362 5332 5405 5419 5415 5413 5416 5420 5425 5427 5430 5418 5407 5404 5390 5441 5452 5458 5461 5455 5471 5472 5485 5506 5526 5540 5559
5468 5466 5463 5460 5457 5453 5449 5447 5447 5445 5443 5440 5439 5438 5437 5433 5426 5417 5406 5376 5331 5381 5397 5411 5404 5408 5410 5408 5407 5413 5415 5402 5412 5410 5414 5409 5419 5450 5456 5452 5477 5493 5488 5514 5525 5556 5568
5465 5462 5459 5455 5451 5447 5443 5441 5439 5438 5436 5433 5432 5430 5427 5426 5419 5409 5384 5332 5348 5380 5398 5391 5396 5398 5397 5399 5392 5395 5398 5410 5409 5404 5395 5391 5410 5457 5455 5461 5454 5496 5493 5536 5527 5541 5566
5462 5458 5455 5451 5447 5442 5437 5434 5432 5431 5428 5425 5417 5412 5416 5417 5410 5402 5372 5356 5374 5386 5387 5383 5376 5386 5374 5380 5373 5377 5388 5406 5406 5405 5394 5404 5421 5451 5452 5459 5473 5472 5501 5511 5508 5530 5543
5458 5455 5452 5448 5444 5438 5433 5429 5426 5423 5420 5417 5407 5401 5412 5409 5398 5376 5344 5340 5373 5383 5378 5374 5372 5370 5374 5372 5380 5380 5394 5406 5398 5404 5396 5401 5408 5438 5445 5440 5436 5452 5493 5498 5515 5534 5550
5454 5452 5448 5445 5441 5436 5430 5425 5420 5416 5412 5407 5394 5374 5403 5399 5364 5354 5350 5362 5377 5374 5374 5372 5373 5374 5371 5368 5375 5378 5380 5386 5398 5397 5404 5401 5403 5408 5436 5438 5426 5437 5452 5467 5511 5531 5541
5450 5447 5445 5441 5436 5431 5426 5420 5415 5410 5405 5394 5377 5380 5394 5387 5337 5316 5353 5365 5365 5363 5365 5365 5363 5368 5365 5362 5359 5371 5379 5388 5389 5387 5395 5401 5398 5401 5432 5426 5425 5424 5434 5438 5444 5479 5537
5447 5444 5442 5437 5432 5427 5421 5416 5410 5405 5399 5388 5371 5365 5365 5364 5357 5359 5357 5356 5354 5358 5355 5356 5358 5359 5353 5352 5358 5358 5363 5375 5379 5383 5395 5395 5399 5399 5400 5399 5407 5410 5429 5435 5433 5457 5479
5443 5440 5437 5432 5427 5422 5417 5411 5405 5399 5393 5381 5363 5359 5358 5331 5342 5355 5347 5345 5346 5344 5352 5352 5351 5347 5340 5337 5346 5349 5354 5363 5377 5385 5386 5380 5379 5383 5392 5406 5421 5423 5425 5436 5436 5444 5461
5439 5435 5432 5428 5423 5418 5412 5406 5400 5395 5388 5377 5357 5354 5351 5353 5355 5348 5340 5337 5345 5343 5340 5342 5337 5339 5334 5319 5325 5328 5335 5343 5351 5372 5372 5374 5371 5384 5396 5415 5422 5428 5444 5452 5453 5455 5468
5435 5432 5428 5423 5418 5413 5407 5402 5396 5390 5384 5372 5361 5358 5351 5348 5343 5339 5330 5340 5343 5337 5341 5338 5332 5328 5329 5330 5332 5333 5338 5344 5346 5352 5362 5360 5362 5374 5374 5397 5404 5410 5446 5454 5462 5459 5460
5431 5428 5423 5418 5413 5409 5402 5396 5391 5386 5381 5372 5362 5358 5353 5344 5341 5338 5341 5339 5339 5333 5327 5333 5325 5317 5331 5331 5326 5331 5334 5341 5347 5356 5364 5365 5363 5357 5368 5383 5339 5428 5451 5462 5462 5468 5469
5426 5423 5418 5413 5409 5403 5397 5391 5386 5381 5377 5370 5361 5355 5351 5346 5346 5342 5337 5334 5334 5331 5323 5319 5325 5322 5320 5320 5307 5284 5295 5307 5331 5359 5374 5379 5368 5327 5329 5359 5409 5435 5460 5452 5457 5467 5478
5419 5416 5412 5408 5403 5398 5392 5386 5381 5375 5371 5365 5357 5352 5345 5341 5344 5343 5335 5330 5321 5312 5315 5319 5319 5319 5316 5291 5259 5264 5275 5315 5325 5359 5389 5386 5377 5369 5331 5347 5346 5432 5451 5452 5455 5447 5469
5412 5409 5406 5403 5398 5392 5385 5379 5374 5370 5367 5363 5357 5349 5343 5337 5343 5335 5324 5317 5321 5311 5306 5296 5305 5304 5308 5251 5269 5277 5303 5347 5340 5337 5354 5363 5365 5357 5375 5353 5392 5426 5433 5449 5441 5427 5446
5405 5402 5399 5396 5391 5385 5379 5373 5370 5366 5363 5359 5356 5347 5339 5336 5342 5335 5329 5322 5317 5308 5306 5296 5293 5292 5280 5298 5283 5311 5313 5333 5331 5356 5362 5368 5339 5353 5361 5354 5366 5414 5425 5421 5416 5431 5436
5397 5394 5391 5387 5382 5378 5373 5369 5364 5362 5360 5355 5348 5345 5338 5334 5340 5333 5331 5328 5326 5319 5304 5295 5300 5305 5303 5277 5269 5280 5285 5307 5333 5330 5368 5358 5373 5374 5371 5374 5405 5415 5423 5424 5423 5424 5434